Radiation Dose at Monitoring Post of Fukushima Daini Nuclear Power Station
Date,Time,MP-1(microSv/h),MP-2(microSv/h),MP-3(microSv/h),MP-4(microSv/h),MP-5(microSv/h),MP-6(microSv/h),MP-7(microSv/h),Wind Direction,Wind Velocity(m/s),Rain
2022/07/10,00:00,0.148,0.137,0.217,0.209,0.210,0.116,0.075,south,4.3,No
2022/07/10,00:10,0.149,0.138,0.217,0.209,0.211,0.116,0.075,south,3.6,No
2022/07/10,00:20,0.147,0.137,0.218,0.209,0.210,0.116,0.075,south-southeast,4.4,No
2022/07/10,00:30,0.149,0.137,0.217,0.208,0.212,0.116,0.075,south-southeast,4.2,No
2022/07/10,00:40,0.148,0.137,0.218,0.210,0.211,0.115,0.075,south-southeast,3.5,No
2022/07/10,00:50,0.148,0.139,0.218,0.209,0.210,0.117,0.074,south,3.6,No
2022/07/10,01:00,0.148,0.137,0.217,0.210,0.212,0.115,0.075,south,4.0,No
2022/07/10,01:10,0.147,0.137,0.218,0.210,0.211,0.115,0.075,south,3.8,No
2022/07/10,01:20,0.148,0.138,0.217,0.207,0.211,0.117,0.075,south,3.5,No
2022/07/10,01:30,0.149,0.137,0.218,0.210,0.210,0.115,0.076,south-southeast,4.4,No
2022/07/10,01:40,0.147,0.138,0.217,0.209,0.209,0.116,0.075,south-southeast,6.4,No
2022/07/10,01:50,0.148,0.137,0.218,0.210,0.213,0.116,0.075,south,6.9,No
2022/07/10,02:00,0.148,0.138,0.218,0.209,0.209,0.115,0.075,south,6.9,No
2022/07/10,02:10,0.147,0.137,0.217,0.208,0.210,0.116,0.074,south,6.4,No
2022/07/10,02:20,0.149,0.137,0.218,0.211,0.211,0.117,0.075,south,5.8,No
2022/07/10,02:30,0.146,0.138,0.217,0.208,0.210,0.115,0.075,south,6.0,No
2022/07/10,02:40,0.148,0.137,0.218,0.208,0.212,0.117,0.075,south,6.6,No
2022/07/10,02:50,0.148,0.138,0.218,0.209,0.212,0.115,0.075,south,6.0,No
2022/07/10,03:00,0.147,0.138,0.216,0.208,0.209,0.116,0.075,south,4.9,No
2022/07/10,03:10,0.149,0.137,0.219,0.209,0.213,0.116,0.075,south,5.1,No
2022/07/10,03:20,0.148,0.138,0.216,0.207,0.209,0.115,0.074,south,4.7,No
2022/07/10,03:30,0.147,0.137,0.218,0.210,0.212,0.116,0.074,south,5.0,No
2022/07/10,03:40,0.150,0.138,0.217,0.210,0.212,0.117,0.076,south,4.6,No
2022/07/10,03:50,0.148,0.137,0.217,0.207,0.210,0.116,0.076,south-southwest,5.3,No
2022/07/10,04:00,0.149,0.138,0.219,0.210,0.213,0.117,0.075,southwest,5.1,No
2022/07/10,04:10,0.148,0.138,0.216,0.208,0.212,0.117,0.076,southwest,5.0,No
2022/07/10,04:20,0.147,0.138,0.219,0.209,0.210,0.116,0.076,south,3.5,No
2022/07/10,04:30,0.148,0.138,0.217,0.210,0.212,0.117,0.075,south-southwest,3.6,No
2022/07/10,04:40,0.148,0.137,0.219,0.208,0.210,0.116,0.075,south-southwest,3.4,No
2022/07/10,04:50,0.147,0.138,0.218,0.210,0.212,0.116,0.076,southwest,3.0,No
2022/07/10,05:00,0.149,0.139,0.215,0.208,0.212,0.117,0.075,southwest,3.7,No
2022/07/10,05:10,0.148,0.138,0.219,0.209,0.211,0.116,0.076,southwest,4.0,No
2022/07/10,05:20,0.148,0.140,0.217,0.210,0.213,0.116,0.075,southwest,3.5,No
2022/07/10,05:30,0.150,0.137,0.220,0.209,0.212,0.118,0.075,southwest,3.4,No
2022/07/10,05:40,0.147,0.138,0.218,0.211,0.210,0.117,0.076,southwest,3.7,No
2022/07/10,05:50,0.149,0.138,0.217,0.209,0.213,0.117,0.075,southwest,4.4,No
2022/07/10,06:00,0.149,0.138,0.220,0.209,0.210,0.117,0.075,southwest,4.1,No
2022/07/10,06:10,0.148,0.139,0.218,0.211,0.209,0.117,0.075,southwest,3.7,No
2022/07/10,06:20,0.149,0.138,0.217,0.209,0.208,0.117,0.075,south-southwest,2.4,No
2022/07/10,06:30,0.148,0.138,0.219,0.209,0.211,0.117,0.075,south-southwest,2.3,No
2022/07/10,06:40,0.147,0.138,0.218,0.207,0.213,0.116,0.075,south,2.4,No
2022/07/10,06:50,0.147,0.137,0.216,0.210,0.212,0.117,0.075,south,3.2,No
2022/07/10,07:00,0.149,0.138,0.217,0.210,0.209,0.117,0.075,south,2.5,No
2022/07/10,07:10,0.149,0.138,0.219,0.208,0.213,0.117,0.075,south-southwest,2.3,No
2022/07/10,07:20,0.147,0.137,0.218,0.211,0.214,0.116,0.077,south-southwest,2.1,No
2022/07/10,07:30,0.149,0.138,0.216,0.211,0.211,0.117,0.076,southwest,4.0,No
2022/07/10,07:40,0.149,0.139,0.218,0.209,0.210,0.117,0.076,west-southwest,6.0,No
2022/07/10,07:50,0.149,0.139,0.219,0.208,0.212,0.117,0.076,southwest,5.1,No
2022/07/10,08:00,0.147,0.138,0.219,0.207,0.213,0.116,0.075,southwest,5.0,No
2022/07/10,08:10,0.149,0.138,0.216,0.211,0.213,0.117,0.076,southwest,3.5,No
2022/07/10,08:20,0.148,0.137,0.217,0.210,0.211,0.117,0.076,south-southwest,3.4,No
2022/07/10,08:30,0.149,0.137,0.217,0.209,0.210,0.118,0.076,south-southwest,4.2,No
2022/07/10,08:40,0.148,0.137,0.216,0.209,0.209,0.117,0.075,south-southwest,3.6,No
2022/07/10,08:50,0.147,0.138,0.217,0.209,0.210,0.116,0.076,south,4.0,No
2022/07/10,09:00,0.148,0.137,0.218,0.209,0.212,0.117,0.076,south,4.2,No
2022/07/10,09:10,0.148,0.139,0.217,0.209,0.211,0.117,0.076,south,3.9,No
2022/07/10,09:20,0.148,0.138,0.218,0.210,0.211,0.117,0.076,south,3.5,No
2022/07/10,09:30,0.147,0.138,0.219,0.210,0.213,0.118,0.076,south,3.5,No
2022/07/10,09:40,0.148,0.138,0.219,0.210,0.212,0.118,0.076,south,4.6,No
2022/07/10,09:50,0.148,0.139,0.219,0.211,0.212,0.117,0.076,south,5.4,No
2022/07/10,10:00,0.149,0.139,0.218,0.210,0.212,0.117,0.075,south-southeast,6.5,No
2022/07/10,10:10,0.147,0.139,0.219,0.210,0.213,0.117,0.076,south-southeast,7.6,No
2022/07/10,10:20,0.148,0.138,0.218,0.210,0.212,0.118,0.076,south-southeast,8.1,No
2022/07/10,10:30,0.148,0.138,0.219,0.209,0.212,0.117,0.076,south-southeast,7.1,No
2022/07/10,10:40,0.148,0.137,0.218,0.211,0.211,0.117,0.075,south-southeast,7.7,No
2022/07/10,10:50,0.148,0.138,0.218,0.211,0.212,0.117,0.075,south-southeast,7.8,No
2022/07/10,11:00,0.148,0.139,0.218,0.211,0.212,0.117,0.076,south,8.6,No
2022/07/10,11:10,0.149,0.138,0.218,0.210,0.213,0.117,0.076,south,8.9,No
2022/07/10,11:20,0.148,0.138,0.219,0.211,0.213,0.118,0.075,south,9.0,No
2022/07/10,11:30,0.149,0.140,0.221,0.212,0.213,0.117,0.076,south,8.2,No
2022/07/10,11:40,0.150,0.139,0.220,0.212,0.212,0.119,0.075,south,8.5,No
2022/07/10,11:50,0.149,0.138,0.220,0.211,0.213,0.118,0.075,south,9.5,No
2022/07/10,12:00,0.149,0.140,0.219,0.211,0.214,0.118,0.075,south,9.5,No
2022/07/10,12:10,0.149,0.138,0.221,0.212,0.213,0.119,0.075,south,8.4,No
2022/07/10,12:20,0.148,0.140,0.221,0.212,0.213,0.118,0.075,south-southeast,9.0,No
2022/07/10,12:30,0.149,0.139,0.220,0.212,0.212,0.117,0.075,south-southeast,9.5,No
2022/07/10,12:40,0.150,0.140,0.220,0.212,0.213,0.117,0.076,south,9.0,No
2022/07/10,12:50,0.149,0.140,0.221,0.212,0.213,0.117,0.076,south,9.8,No
2022/07/10,13:00,0.148,0.140,0.221,0.212,0.212,0.118,0.076,south,11.2,No
2022/07/10,13:10,0.149,0.139,0.219,0.211,0.212,0.117,0.076,south-southeast,10.3,No
2022/07/10,13:20,0.148,0.139,0.220,0.212,0.212,0.117,0.076,south,10.6,No
2022/07/10,13:30,0.149,0.140,0.220,0.212,0.212,0.119,0.076,south,10.0,No
2022/07/10,13:40,0.150,0.139,0.220,0.212,0.213,0.118,0.076,south,10.3,No
2022/07/10,13:50,0.149,0.139,0.220,0.212,0.214,0.118,0.075,south,9.6,No
2022/07/10,14:00,0.149,0.139,0.222,0.212,0.213,0.119,0.075,south,8.6,No
2022/07/10,14:10,0.151,0.140,0.221,0.212,0.214,0.118,0.076,south,8.8,No
2022/07/10,14:20,0.150,0.140,0.220,0.214,0.215,0.118,0.076,south,9.0,No
2022/07/10,14:30,0.149,0.139,0.221,0.213,0.214,0.118,0.075,south-southeast,8.6,No
2022/07/10,14:40,0.150,0.139,0.222,0.212,0.215,0.118,0.076,south,9.5,No
2022/07/10,14:50,0.150,0.139,0.220,0.212,0.214,0.118,0.075,south,10.1,No
2022/07/10,15:00,0.150,0.139,0.220,0.212,0.214,0.119,0.076,south,8.4,No
2022/07/10,15:10,0.149,0.139,0.220,0.212,0.213,0.118,0.075,south-southeast,8.2,No
2022/07/10,15:20,0.147,0.139,0.220,0.212,0.214,0.118,0.075,south,8.4,No
2022/07/10,15:30,0.148,0.140,0.220,0.213,0.212,0.118,0.075,south-southeast,8.6,No
2022/07/10,15:40,0.150,0.138,0.221,0.211,0.213,0.117,0.075,south,7.8,No
2022/07/10,15:50,0.150,0.138,0.220,0.210,0.214,0.117,0.075,south-southeast,7.4,No
2022/07/10,16:00,0.150,0.138,0.220,0.212,0.212,0.118,0.076,south-southeast,7.8,No
2022/07/10,16:10,0.148,0.138,0.221,0.212,0.213,0.117,0.076,south-southeast,7.8,No
2022/07/10,16:20,0.149,0.137,0.220,0.211,0.214,0.117,0.076,south,7.9,No
2022/07/10,16:30,0.148,0.138,0.219,0.210,0.212,0.118,0.075,south,8.3,No
2022/07/10,16:40,0.148,0.138,0.219,0.210,0.211,0.118,0.075,south,7.9,No
2022/07/10,16:50,0.148,0.139,0.219,0.216,0.212,0.118,0.075,south,8.8,No
2022/07/10,17:00,0.151,0.140,0.223,0.214,0.214,0.118,0.075,south-southeast,8.7,No
2022/07/10,17:10,0.149,0.138,0.222,0.212,0.216,0.117,0.076,south,8.9,No
2022/07/10,17:20,0.149,0.138,0.222,0.212,0.214,0.117,0.075,south,9.6,No
2022/07/10,17:30,0.148,0.138,0.220,0.211,0.213,0.118,0.075,south,9.5,No
2022/07/10,17:40,0.147,0.138,0.220,0.212,0.213,0.117,0.075,south,7.5,No
2022/07/10,17:50,0.148,0.140,0.220,0.214,0.213,0.118,0.075,south,8.1,No
2022/07/10,18:00,0.147,0.139,0.220,0.214,0.213,0.119,0.076,south,9.2,No
2022/07/10,18:10,0.149,0.139,0.224,0.212,0.212,0.118,0.075,south,8.4,No
2022/07/10,18:20,0.152,0.139,0.223,0.212,0.211,0.117,0.075,south,7.8,No
2022/07/10,18:30,0.150,0.139,0.220,0.214,0.214,0.119,0.075,south,8.1,No
2022/07/10,18:40,0.149,0.141,0.220,0.214,0.215,0.118,0.076,south,8.1,No
2022/07/10,18:50,0.147,0.139,0.221,0.212,0.215,0.118,0.075,south,7.3,No
2022/07/10,19:00,0.150,0.138,0.223,0.211,0.212,0.118,0.076,south,7.9,No
2022/07/10,19:10,0.152,0.140,0.222,0.214,0.214,0.119,0.076,south,8.2,No
2022/07/10,19:20,0.150,0.139,0.219,0.214,0.216,0.118,0.075,south,8.1,No
2022/07/10,19:30,0.149,0.139,0.222,0.211,0.213,0.118,0.075,south,8.3,No
2022/07/10,19:40,0.150,0.139,0.223,0.213,0.213,0.117,0.076,south,8.1,No
2022/07/10,19:50,0.150,0.140,0.222,0.215,0.215,0.118,0.077,south,7.3,No
2022/07/10,20:00,0.150,0.139,0.221,0.214,0.215,0.118,0.076,south,6.3,No
2022/07/10,20:10,0.148,0.138,0.223,0.212,0.213,0.118,0.076,south,6.0,No
2022/07/10,20:20,0.151,0.140,0.222,0.213,0.214,0.118,0.076,south,7.1,No
2022/07/10,20:30,0.150,0.139,0.220,0.214,0.215,0.119,0.076,south,7.1,No
2022/07/10,20:40,0.149,0.140,0.223,0.212,0.213,0.117,0.075,south,6.8,No
2022/07/10,20:50,0.150,0.140,0.222,0.212,0.212,0.118,0.076,south,6.7,No
2022/07/10,21:00,0.152,0.140,0.221,0.214,0.216,0.118,0.076,south,6.2,No
2022/07/10,21:10,0.150,0.139,0.223,0.213,0.215,0.118,0.075,south,6.4,No
2022/07/10,21:20,0.148,0.138,0.223,0.212,0.213,0.118,0.076,south,5.8,No
2022/07/10,21:30,0.151,0.139,0.221,0.214,0.215,0.118,0.076,south,5.4,No
2022/07/10,21:40,0.149,0.139,0.222,0.212,0.215,0.119,0.075,south,6.1,No
2022/07/10,21:50,0.150,0.138,0.223,0.213,0.213,0.118,0.076,south,5.7,No
2022/07/10,22:00,0.150,0.139,0.221,0.214,0.214,0.118,0.076,south,5.8,No
2022/07/10,22:10,0.151,0.138,0.222,0.213,0.216,0.119,0.076,south,5.9,No
2022/07/10,22:20,0.148,0.139,0.223,0.211,0.214,0.118,0.075,south-southeast,6.4,No
2022/07/10,22:30,0.149,0.140,0.220,0.215,0.213,0.118,0.076,south,5.9,No
2022/07/10,22:40,0.151,0.139,0.223,0.213,0.214,0.117,0.076,south,5.3,No
2022/07/10,22:50,0.149,0.139,0.223,0.211,0.213,0.119,0.075,south,5.4,No
2022/07/10,23:00,0.149,0.141,0.221,0.214,0.212,0.118,0.076,south,5.1,No
2022/07/10,23:10,0.151,0.139,0.223,0.213,0.215,0.118,0.076,south,5.6,No
2022/07/10,23:20,0.150,0.138,0.223,0.212,0.213,0.118,0.075,south,5.6,No
2022/07/10,23:30,0.149,0.140,0.220,0.215,0.212,0.117,0.077,south,4.8,No
2022/07/10,23:40,0.150,0.139,0.222,0.214,0.215,0.118,0.075,south,4.4,No
2022/07/10,23:50,0.150,0.139,0.222,0.211,0.215,0.119,0.075,south,4.5,No
